[[{"header":{"parameterUnit":"m.s-1","parameterCategory":1,"la1":30.2991,"la2":30.254,"lo1":-89.0895,"lo2":-89.0444,"dy":0.0017,"dx":0.0017,"nx":28,"ny":28,"refTime":"2025-06-19T09:00:00:Z","depth":0,"parameterNumber":2,"parameterNumberName":"U-component_of_WINDS"},"data":[0,0,0,0,0,0,0,0,0,0,0,0,0,0,0,0,0,0,0,0,0,0,0,0,0,0,0,0,0,0,0,0,0,0,0,0,0,0,0,0,0,0,0,0,0,0,0,0,0,0,0,0,0,0,0,0,0,0,2.094,2.0941,0,2.1051,2.1052,2.1053,2.1056,2.1055,2.1054,2.1052,2.1172,2.1177,2.1181,0,0,0,0,0,0,0,0,0,0,0,0,0,2.0736,2.074,2.0939,2.0941,2.0942,2.1051,2.1052,2.1054,2.1057,2.1055,2.1053,2.1052,2.1171,2.1176,2.1182,0,0,0,0,0,0,0,0,0,0,0,0,0,2.0834,2.0741,2.0939,2.0957,2.0959,2.105,2.1052,2.1054,2.1057,2.1055,2.1053,2.1051,2.1169,2.1176,2.1182,2.1265,0,0,2.1203,2.1206,0,0,0,0,0,0,0,0,2.0828,2.0841,2.0953,2.0956,2.0959,2.1037,2.1024,2.1125,2.1058,2.102,2.1052,2.105,2.113,2.1139,2.1165,2.1271,2.1276,2.1203,2.1208,2.121,2.1212,0,0,0,0,0,0,0,2.0822,2.0837,2.0984,2.0954,2.0958,2.0961,2.0973,2.1044,2.1085,2.1023,2.1024,2.1037,2.1131,2.1159,2.1168,2.1278,2.1203,2.1209,2.1213,2.1216,2.146,2.1462,0,0,0,0,0,0,2.081,2.0831,2.098,2.0987,2.0887,2.0966,2.0979,2.1014,2.1084,2.1093,2.1038,2.1036,2.1148,2.116,2.1172,2.1276,2.121,2.1217,2.1221,2.1457,2.146,2.1463,0,0,0,0,0,0,2.0806,2.0824,2.0976,2.0909,2.0929,2.0972,2.1012,2.1018,2.1045,2.1096,2.1104,2.1058,2.1147,2.1163,2.1242,2.128,2.122,2.1226,2.1454,2.1458,2.1462,2.1482,0,0,0,0,0,0,2.08,2.0822,2.0852,2.091,2.0932,2.1042,2.1014,2.1021,2.1056,2.1055,2.1117,2.1125,2.1147,2.1232,2.1249,2.1288,2.1231,2.1451,2.1456,2.146,2.1478,2.1486,2.1492,0,0,0,0,0,2.0793,2.0854,2.0854,2.0872,2.0971,2.1044,2.1057,2.1079,2.1059,2.1091,2.1124,2.1123,2.1272,2.124,2.1259,2.1301,2.1449,2.1455,2.146,2.1475,2.1484,2.1492,0,0,0,0,0,0,2.0802,2.0862,2.0862,2.0944,2.0989,2.1044,2.1085,2.1088,2.114,2.1137,2.1163,2.1178,2.1257,2.1287,2.125,2.1386,2.1359,2.1368,2.1364,2.1373,2.138,2.1372,2.1237,0,0,0,0,0,2.0813,2.0866,2.0916,2.0983,2.1006,2.1042,2.1074,2.1087,2.1135,2.1155,2.1193,2.1242,2.13,2.1338,2.1394,2.1482,2.1497,2.152,2.1527,2.1533,2.1541,2.1592,2.1604,2.1481,2.1481,2.1481,0,0,2.0838,2.0877,2.0909,2.0986,2.1023,2.1079,2.1058,2.1117,2.116,2.1165,2.1242,2.1272,2.1328,2.1413,2.1452,2.144,2.1578,2.154,2.1544,2.155,2.1599,2.1611,2.1621,2.1485,2.1484,2.1483,0,0,2.0911,2.0945,2.1005,2.1042,2.1097,2.112,2.1135,2.119,2.121,2.1288,2.1293,2.1345,2.1444,2.1484,2.1518,2.1607,2.161,2.1625,2.1663,2.1712,2.1722,2.1731,2.1765,2.1776,2.1633,2.1633,2.1633,0,2.0935,2.1018,2.1037,2.1097,2.1132,2.1137,2.12,2.1235,2.1306,2.1331,2.1316,2.1441,2.1479,2.1574,2.1596,2.1622,2.1642,2.1619,2.1718,2.1728,2.1736,2.1769,2.1781,2.1635,2.1634,2.1634,2.1634,0,2.1046,2.1103,2.1146,2.1213,2.1252,2.1314,2.1344,2.1383,2.1392,2.1418,2.1499,2.1544,2.1611,2.1634,2.1644,2.1731,2.1722,2.1712,2.1686,2.1749,2.1781,2.1793,2.1637,2.1636,2.1636,2.1635,0,0,2.1129,2.1205,2.1221,2.1252,2.1313,2.1359,2.1421,2.1484,2.1518,2.1567,2.1622,2.1705,2.1697,2.1735,2.175,2.1793,2.1864,2.1779,2.178,2.1795,2.1965,2.1974,2.1988,2.1865,2.1867,2.1869,2.1961,0,2.121,2.1319,2.1339,2.1435,2.149,2.1496,2.1551,2.1595,2.1621,2.1674,2.1703,2.1763,2.1746,2.1769,2.1812,2.1846,2.1899,2.184,2.1919,2.1922,2.1906,2.2004,2.2012,2.2097,2.1974,2.1976,2.1977,0,2.132,2.137,2.1472,2.1526,2.155,2.1599,2.1659,2.1708,2.176,2.1776,2.1818,2.1829,2.1896,2.1866,2.1961,2.192,2.1954,2.1976,2.198,2.1989,2.1954,2.2018,2.2124,2.2137,2.1996,2.1995,2.1993,0,2.1373,2.1466,2.1539,2.1565,2.1631,2.1665,2.1694,2.1743,2.1781,2.1834,2.1859,2.192,2.1954,2.2002,2.203,2.2004,2.2124,2.2095,2.2141,2.2141,2.2168,2.2166,2.2282,2.2186,2.2186,2.2186,2.2185,0,2.1463,2.1525,2.1564,2.1609,2.168,2.1703,2.1773,2.1802,2.1846,2.1899,2.1908,2.1958,2.199,2.2045,2.2067,2.2144,2.2159,2.2176,2.2181,2.2176,2.2174,2.22,2.2195,2.2189,2.2188,2.2188,2.2187,0,2.1534,2.1562,2.1643,2.1698,2.1713,2.1763,2.1811,2.1857,2.1883,2.195,2.1967,2.2008,2.2074,2.2105,2.2187,2.2202,2.2289,2.229,2.2272,2.2274,2.2319,2.2316,2.2458,2.2479,2.2367,2.2368,2.2369,0,2.1591,2.1639,2.1699,2.1734,2.1763,2.182,2.1858,2.1882,2.1922,2.1985,2.2023,2.2088,2.2142,2.2247,2.2286,2.2349,2.2353,2.2398,2.2362,2.2356,2.2356,2.2353,2.2359,2.2405,2.2406,2.2407,2.2408,0,2.1689,2.1701,2.1753,2.1812,2.1856,2.1904,2.1951,2.198,2.2013,2.2057,2.2123,2.2164,2.2247,2.2313,2.2379,2.2411,2.2417,2.2419,2.2433,2.2429,2.2417,2.2426,2.2291,2.2416,2.2415,2.2414,2.2414,2.2414,2.1757,2.18,2.1849,2.1908,2.1946,2.199,2.2036,2.2067,2.2122,2.219,2.2201,2.2272,2.2325,2.2413,2.2448,2.2505,2.2495,2.2516,2.2521,2.2527,2.253,2.2406,2.2517,2.2517,2.2517,2.2517,2.2517,0,2.1857,2.1888,2.1943,2.2007,2.2055,2.2053,2.2105,2.2145,2.2207,2.2254,2.2306,2.2384,2.2447,2.2491,2.2557,2.2594,2.2599,2.2611,2.261,2.2617,2.2534,2.2516,2.2607,2.2607,2.2607,2.2607,2.2607,2.2607,2.1915,2.1989,2.2006,2.21,2.2132,2.22,2.2231,2.2272,2.231,2.2395,2.2447,2.2474,2.2521,2.259,2.265,2.2661,2.2686,2.2699,2.2711,2.2632,2.2623,2.2614,2.2597,2.2704,2.2704,2.2789,2.279,2.2791]},{"header":{"parameterUnit":"m.s-1","parameterCategory":1,"la1":30.2991,"la2":30.254,"lo1":-89.0895,"lo2":-89.0444,"dy":0.0017,"dx":0.0017,"nx":28,"ny":28,"refTime":"2025-06-19T09:00:00:Z","depth":0,"parameterNumber":3,"parameterNumberName":"V-component_of_WINDS"},"data":[0,0,0,0,0,0,0,0,0,0,0,0,0,0,0,0,0,0,0,0,0,0,0,0,0,0,0,0,0,0,0,0,0,0,0,0,0,0,0,0,0,0,0,0,0,0,0,0,0,0,0,0,0,0,0,0,0,0,1.3223,1.3223,0,1.3216,1.3216,1.3215,1.3209,1.3209,1.3209,1.3209,1.3198,1.3197,1.3197,0,0,0,0,0,0,0,0,0,0,0,0,0,1.3225,1.3225,1.3223,1.3223,1.3223,1.3216,1.3216,1.3215,1.3209,1.3209,1.3209,1.3209,1.3198,1.3197,1.3197,0,0,0,0,0,0,0,0,0,0,0,0,0,1.3221,1.3225,1.3223,1.3219,1.3218,1.3216,1.3216,1.3215,1.3209,1.3209,1.3209,1.3209,1.3198,1.3198,1.3197,1.3197,0,0,1.3196,1.3196,0,0,0,0,0,0,0,0,1.3222,1.3221,1.3219,1.3219,1.3219,1.3213,1.3212,1.3209,1.3209,1.3212,1.3209,1.3209,1.3203,1.3202,1.3201,1.3197,1.3196,1.3196,1.3196,1.3196,1.3196,0,0,0,0,0,0,0,1.3222,1.3222,1.322,1.3219,1.3219,1.3215,1.3214,1.3212,1.3208,1.3212,1.3212,1.3211,1.3202,1.3201,1.32,1.3196,1.3196,1.3196,1.3196,1.3195,1.3186,1.3186,0,0,0,0,0,0,1.3224,1.3222,1.322,1.322,1.322,1.3215,1.3214,1.3215,1.3208,1.3207,1.3211,1.3211,1.3202,1.3201,1.32,1.3196,1.3196,1.3195,1.3195,1.3186,1.3186,1.3186,0,0,0,0,0,0,1.3224,1.3223,1.3221,1.3221,1.322,1.3215,1.3216,1.3215,1.3214,1.3207,1.3206,1.3211,1.3202,1.32,1.3197,1.3196,1.3195,1.3195,1.3186,1.3186,1.3186,1.3192,0,0,0,0,0,0,1.3224,1.3224,1.3225,1.3221,1.322,1.322,1.3216,1.3215,1.3213,1.3213,1.3207,1.3206,1.3201,1.3198,1.3197,1.3196,1.3195,1.3187,1.3186,1.3186,1.3191,1.3192,1.3192,0,0,0,0,0,1.3224,1.3227,1.3226,1.3225,1.3222,1.322,1.3219,1.3215,1.3214,1.3214,1.3209,1.3206,1.3196,1.3197,1.3196,1.3195,1.3187,1.3186,1.3186,1.3191,1.3192,1.3192,0,0,0,0,0,0,1.3232,1.3227,1.3225,1.3227,1.3224,1.3219,1.322,1.3216,1.3213,1.3212,1.3206,1.3205,1.3201,1.3198,1.3199,1.3192,1.3191,1.319,1.3195,1.3195,1.3195,1.3196,1.3194,0,0,0,0,0,1.3234,1.3234,1.3229,1.3231,1.323,1.3225,1.3224,1.322,1.3216,1.3215,1.321,1.3205,1.32,1.3198,1.3193,1.3191,1.3187,1.3189,1.3189,1.3189,1.3189,1.3183,1.3183,1.3186,1.3186,1.3186,0,0,1.3238,1.3235,1.3236,1.3233,1.323,1.3227,1.3224,1.3223,1.322,1.3214,1.321,1.3206,1.32,1.3196,1.3194,1.3193,1.3187,1.3189,1.3189,1.3189,1.3183,1.3183,1.3182,1.3186,1.3186,1.3186,0,0,1.3245,1.3244,1.3244,1.3241,1.3236,1.3232,1.3232,1.3226,1.3223,1.3219,1.3214,1.3209,1.3203,1.3197,1.3194,1.3193,1.3189,1.3192,1.3193,1.3187,1.3187,1.3187,1.3184,1.3183,1.3191,1.3191,1.3191,0,1.325,1.3248,1.3244,1.3242,1.324,1.3234,1.3232,1.3229,1.3223,1.322,1.3219,1.3208,1.3203,1.3196,1.3195,1.3194,1.3191,1.3193,1.3188,1.3187,1.3187,1.3184,1.3183,1.3192,1.3192,1.3192,1.3192,0,1.3254,1.3252,1.3252,1.3246,1.3244,1.3242,1.3235,1.3232,1.3228,1.3223,1.3217,1.3211,1.3203,1.3201,1.3198,1.3192,1.3191,1.3189,1.3187,1.3187,1.3184,1.3183,1.3192,1.3192,1.3192,1.3192,0,0,1.3267,1.3257,1.3257,1.3252,1.3245,1.3242,1.3238,1.3231,1.3227,1.3222,1.3217,1.3209,1.3206,1.3202,1.3197,1.3192,1.3188,1.319,1.319,1.3188,1.3177,1.3178,1.3177,1.3185,1.3185,1.3185,1.3177,0,1.3271,1.3265,1.326,1.3255,1.3251,1.3244,1.324,1.3233,1.3227,1.3221,1.3214,1.3208,1.3206,1.3203,1.3198,1.319,1.3186,1.319,1.3177,1.3177,1.3178,1.3176,1.3178,1.3171,1.3176,1.3176,1.3176,0,1.3275,1.327,1.3265,1.3254,1.3252,1.3249,1.324,1.3236,1.3226,1.3222,1.3215,1.321,1.3202,1.32,1.3188,1.3191,1.3185,1.318,1.3179,1.3177,1.3176,1.3172,1.317,1.3168,1.3175,1.3175,1.3175,0,1.3282,1.3274,1.3269,1.3265,1.3254,1.3251,1.3245,1.3236,1.3231,1.3222,1.3218,1.3209,1.3203,1.3194,1.3185,1.3185,1.3172,1.3171,1.3166,1.3166,1.3163,1.3163,1.3158,1.3162,1.3162,1.3162,1.3162,0,1.3286,1.3283,1.3271,1.3268,1.3262,1.3254,1.3248,1.3242,1.3233,1.3226,1.3219,1.3213,1.3201,1.3192,1.3184,1.3173,1.3171,1.3165,1.3163,1.3165,1.3166,1.3161,1.316,1.3161,1.3161,1.3161,1.3161,0,1.3294,1.3286,1.3279,1.3268,1.3265,1.3261,1.325,1.3245,1.3237,1.3229,1.3226,1.3214,1.3203,1.3192,1.3177,1.3172,1.3159,1.3158,1.3163,1.3161,1.3156,1.3156,1.3146,1.3143,1.3151,1.315,1.315,0,1.3296,1.3293,1.3281,1.3276,1.3271,1.3263,1.3257,1.3248,1.3242,1.3229,1.3224,1.3212,1.3202,1.3184,1.3172,1.316,1.3156,1.3154,1.3154,1.3155,1.3153,1.3153,1.3151,1.3154,1.3154,1.3154,1.3154,0,1.3301,1.3296,1.3289,1.3279,1.3272,1.3264,1.3255,1.3251,1.3239,1.3232,1.322,1.3213,1.3196,1.3183,1.3168,1.316,1.3154,1.3153,1.3151,1.3153,1.3155,1.3151,1.3161,1.3153,1.3153,1.3153,1.3153,1.3153,1.3304,1.33,1.3289,1.328,1.3272,1.3263,1.3257,1.3248,1.3239,1.3225,1.3219,1.3207,1.3193,1.3173,1.3164,1.3152,1.3151,1.3149,1.3148,1.3147,1.3146,1.3158,1.315,1.315,1.315,1.315,1.315,0,1.3306,1.3299,1.329,1.3278,1.3269,1.3265,1.3253,1.3246,1.3236,1.3224,1.3214,1.3198,1.3184,1.3171,1.3156,1.3148,1.3145,1.3145,1.3144,1.3142,1.3149,1.3152,1.3148,1.3148,1.3148,1.3148,1.3148,1.3148,1.3307,1.3298,1.3291,1.3277,1.3268,1.3257,1.325,1.324,1.3231,1.3214,1.3203,1.3194,1.3181,1.3164,1.315,1.3146,1.314,1.314,1.3135,1.3142,1.3142,1.3142,1.3144,1.3139,1.3139,1.3128,1.3128,1.3128]}]]